Oxford, AL

3:46 PM CST on January 17, 2017 (GMT -0600)
Anniston Metro

Weather History for KANB - October, 2011

Change the Weather History Date:

Monday, October 31, 2011

  Actual Average Record
Temperature  
Mean Temperature 50 °F 58 °F  
Max Temperature 67 °F 71 °F 88 °F (2016)
Min Temperature 33 °F 46 °F 27 °F (1954)
Degree Days  
Heating Degree Days 15    
Month to date heating degree days 180  
Since 1 July heating degree days 186  
Moisture  
Dew Point 35 °F    
Average Humidity 61    
Maximum Humidity 89    
Minimum Humidity 32    
Precipitation  
Precipitation 0.00 in 0.11 in 1.21 in (2015)
Month to date precipitation 0.91 3.12  
Year to date precipitation 36.26 40.97  
Sea Level Pressure  
Sea Level Pressure 30.23 in    
Wind  
Wind Speed 2 mph (NNE)    
Max Wind Speed 9 mph    
Max Gust Speed 12 mph    
Visibility 10 miles    
Events      
T = Trace of Precipitation, MM = Missing Value Source: NWS Daily Summary

Daily Weather History Graph

Daily Weather History Graph

Search for Another Location

Airport or City:

Trip Planner

Search our weather history database for the weather conditions in past years. The results will help you decide how hot, cold, wet, or windy it might be!

Date:

Astronomy

Oct. 31, 2011 Rise Set
Actual Time 7:01 AM CDT 5:52 PM CDT
Civil Twilight 6:35 AM CDT 6:18 PM CDT
Nautical Twilight 6:06 AM CDT 6:47 PM CDT
Astronomical Twilight 5:37 AM CDT 7:16 PM CDT
Moon 12:01 PM CDT (10/31) 10:32 PM CDT (10/31)
Length of Visible Light 11h 42m
Length of Day
10h 51m
Waxing Crescent, 30% of the Moon is Illuminated
Oct 31
Waxing Crescent
Nov 2
First Quarter
Nov 10
Full
Nov 18
Last Quarter
Nov 25
New

Hourly Weather History & Observations

Time (CDT) Temp. Windchill Dew Point Humidity Pressure Visibility Wind Dir Wind Speed Gust Speed Precip Events Conditions
12:53 AM 37.0 °F - 33.1 °F 86% 30.27 in 10.0 mi Calm Calm - N/A   Clear
1:53 AM 36.0 °F - 32.0 °F 86% 30.26 in 10.0 mi Calm Calm - N/A   Clear
2:53 AM 35.1 °F - 32.0 °F 89% 30.25 in 10.0 mi Calm Calm - N/A   Clear
3:53 AM 36.0 °F - 32.0 °F 86% 30.24 in 10.0 mi Calm Calm - N/A   Clear
4:53 AM 34.0 °F - 30.9 °F 89% 30.25 in 10.0 mi Calm Calm - N/A   Clear
5:53 AM 33.8 °F - 30.2 °F 87% 30.23 in 10.0 mi Calm Calm - N/A   Clear
6:53 AM 33.1 °F - 30.0 °F 89% 30.25 in 9.0 mi Calm Calm - N/A   Clear
7:53 AM 36.0 °F - 32.0 °F 86% 30.27 in 10.0 mi Calm Calm - N/A   Clear
8:53 AM 42.1 °F 40.2 °F 35.1 °F 76% 30.27 in 10.0 mi East 3.5 mph - N/A   Clear
9:53 AM 51.1 °F - 37.0 °F 59% 30.27 in 10.0 mi East 3.5 mph - N/A   Clear
10:53 AM 57.9 °F - 37.9 °F 47% 30.25 in 10.0 mi Calm Calm - N/A   Clear
11:53 AM 62.1 °F - 35.1 °F 37% 30.24 in 10.0 mi WSW 4.6 mph - N/A   Clear
12:53 PM 63.0 °F - 35.1 °F 35% 30.21 in 10.0 mi WSW 5.8 mph - N/A   Clear
1:53 PM 64.0 °F - 36.0 °F 35% 30.19 in 10.0 mi SSW 4.6 mph - N/A   Clear
2:53 PM 66.9 °F - 36.0 °F 32% 30.17 in 10.0 mi North 5.8 mph - N/A   Clear
3:53 PM 66.0 °F - 35.1 °F 32% 30.17 in 10.0 mi North 5.8 mph - N/A   Clear
4:53 PM 64.9 °F - 36.0 °F 34% 30.17 in 10.0 mi North 4.6 mph - N/A   Clear
5:53 PM 59.0 °F - 37.9 °F 46% 30.18 in 10.0 mi North 3.5 mph - N/A   Clear
6:53 PM 51.1 °F - 41.0 °F 68% 30.20 in 10.0 mi Calm Calm - N/A   Clear
7:53 PM 46.9 °F - 39.9 °F 77% 30.22 in 10.0 mi Calm Calm - N/A   Clear
8:53 PM 44.6 °F - 39.2 °F 81% 30.21 in 10.0 mi Calm Calm - N/A   Clear
9:53 PM 44.1 °F 42.5 °F 39.0 °F 82% 30.24 in 10.0 mi East 3.5 mph - N/A   Clear
10:53 PM 43.0 °F 41.3 °F 39.0 °F 86% 30.25 in 10.0 mi East 3.5 mph - N/A   Clear
11:53 PM 41.0 °F - 37.0 °F 86% 30.25 in 9.0 mi Calm Calm - N/A   Clear